Tracking 28790 objects as of 19-Apr-2024
HD Live streaming from Space Station
objects crossing your sky now

COSMOS 2251 DEB

Track COSMOS 2251 DEB now!
10-day predictions


NORAD ID: 33999
Int'l Code: 1993-036GJ
Perigee: 644.6 km
Apogee: 729.1 km
Inclination: 73.9 °
Period: 98.3 minutes
Semi major axis: 7057 km
RCS: 0.0543 m2 (small)
Launch date: June 16, 1993
Source: Commonwealth of Independent States (former USSR) (CIS)
Launch site: PLESETSK MISSILE AND SPACE COMPLEX (PKMTR)

Note: This is SATELLITE DEBRIS
Your satellite tracking list
Your tracking list is empty




NASA's NSSDC Master Catalog

Two Line Element Set (TLE):
1 33999U 93036GJ  24109.07391179  .00017131  00000-0  31701-2 0  9994
2 33999  73.9324 336.7589 0059823  10.7243 349.5184 14.64174560803562
Source of the keplerian elements: AFSPC